sat.trackr.live / text

‹ back to catalog

HAWK-9C

NORAD 59448 · 2024-066G

PAYLOAD ACTIVE UNKNOWN

§ Identity

Operator
Country
US
Launch date
2024-04-07
Launch site
AFETR
Launch vehicle
Mass (kg)
RCS (m²)

External: N2YO · Heavens-Above · Gunter

§ Orbital elements

Epoch: 2026-09-22T08:27:16.019136Z

Period
96.04 min
Inclination
45.6090°
Eccentricity
0.0003028
Mean motion
14.99384243 rev/d
Perigee alt
566.7 km
Apogee alt
570.9 km
Semi-major
6,946.9 km
B*
8.2471e-5
RAAN
134.0122°
Arg perigee
195.5723°
Mean anomaly
164.5066°
Rev number
13,441

§ Raw data

HAWK-9C1 59448U 24066G   26265.35226874  .00000793  00000+0  82471-4 0  99902 59448  45.6090 134.0122 0003028 195.5723 164.5066 14.99384243134412

JSON: /api/v1/satellites/59448 · /tle

For live sub-satellite position, see the globe view (requires WebGL).

§ Visibility from observer

Set your observer location to see the next 7 days of passes ≥ 10°. The values pass through the URL so the page stays shareable.

No JS? Fill the form by hand. The geolocation button needs JavaScript.